Racecast

Hockomock League Meet

Wrentham Development Center · 5000m · Boys · Compiled · MA

257 runners from 2 divisions

These divisions were run separately. This is how their times compare, not how they finished — the places and scores below were never contested.

View full meet →

Team scores

Place Team Points 12345 67
1 Mansfield (MA) 41 1 3 6 13 18 24 30
2 Oliver Ames (MA) 70 2 7 15 21 25 33 50
3 North Attleborough (MA) 72 5 8 11 19 29 31 47
4 Sharon (MA) 126 10 20 27 34 35 36 37
5 Taunton (MA) 144 14 17 32 40 41 49 51
6 Stoughton (MA) 172 22 26 28 42 54 59 69
7 Attleboro (MA) 179 4 16 46 52 61 77 78
8 Franklin (MA) 186 12 38 39 44 53 55 56
9 King Philip Regional (MA) 253 9 48 64 65 67 76 79
10 Foxborough (MA) 276 23 57 62 66 68 70 72
11 Milford (MA) 298 43 45 63 73 74 75 81
12 Canton (MA) 351 58 60 71 80 82 83 84

Not scored, fewer than five finishers: Franklin (1)

Results

Place Athlete Grade School Time Rating Points Actual race
1 Mike Duggan 12 Mansfield (MA) 1 16:07.6 127.5 1 1
2 Connor Donovan 12 Oliver Ames (MA) 1 16:49.6 122.2 2 2
3 Tyler Risotti 12 Mansfield (MA) 2 16:55.5 121.5 3 3
4 David Seybert 10 Attleboro (MA) 1 16:57.7 121.2 4 4
5 Matt Reimels 10 North Attleborough (MA) 1 17:00.2 120.9 5 5
6 Andrew Simons 12 Mansfield (MA) 3 17:03.4 120.5 6 6
7 Jarod Boone 11 Oliver Ames (MA) 2 17:05.6 120.3 7 7
8 Teddy Nolan 12 North Attleborough (MA) 2 17:10.9 119.7 8 8
9 Brandon Sullivan 11 King Philip Regional (MA) 1 17:13.8 119.3 9 9
10 Scott Kaplan 11 Sharon (MA) 1 17:15.9 119.1 10 10
11 Joe Collins 12 North Attleborough (MA) 3 17:21.0 118.5 11 11
12 Ryan Spelman 11 Franklin (WA) 1 17:21.5 118.4 12 12
13 Jake Affanato 11 Mansfield (MA) 4 17:22.9 118.3 13 13
14 Trevor Wysong 11 Taunton (MA) 1 17:24.8 118.1 14 14
15 Cameron Pressey 12 Oliver Ames (MA) 3 17:28.6 117.6 15 15
16 William McKenzie 11 Attleboro (MA) 2 17:29.7 117.5 16 16
17 Dylan Lynch 10 Taunton (MA) 2 17:33.6 117.1 17 17
18 Nick Rispoli 10 Mansfield (MA) 5 17:34.4 117.0 18 18
19 Colin McKenzie 11 North Attleborough (MA) 4 17:37.7 116.6 19 19
20 Tianrui Sun 10 Sharon (MA) 2 17:40.4 116.3 20 20
21 Zachary Zolotarevsky 12 Oliver Ames (MA) 4 17:41.9 116.2 21 21
22 Cameron Bean 10 Stoughton (WI) 1 17:44.3 115.9 22 22
23 Billy Clark 12 Foxborough (MA) 1 17:44.7 115.8 23 23
24 Daniel Cooney 12 Mansfield (MA) 6 17:45.0 115.8 24 24
25 Troy Kent 11 Oliver Ames (MA) 5 17:47.0 115.6 25 25
26 David Lockhart 12 Stoughton (WI) 2 17:49.5 115.3 26 26
27 Ben Stoller 12 Sharon (MA) 3 17:50.8 115.2 27 27
28 Antonio Irons 12 Stoughton (WI) 3 17:51.3 115.1 28 28
29 Tim Post 12 North Attleborough (MA) 5 17:52.2 115.0 29 29
30 Nick Rivard 12 Mansfield (MA) 7 17:52.9 115.0 30 30
31 Kenneth Fong 12 North Attleborough (MA) 6 17:53.4 114.9 31 31
32 David Boslee 12 Taunton (MA) 3 17:54.3 114.8 32 32
33 Brent Schwartz 10 Oliver Ames (MA) 6 18:01.0 114.1 33 33
34 Benjamin Zirps 11 Sharon (MA) 4 18:05.3 113.7 34 34
35 Grant Fawcett 9 Sharon (MA) 5 18:07.9 113.4 35 35
36 Niegel Dabare 11 Mansfield (MA) 8 18:10.7 113.1 36
37 Byron Tollefson 12 Sharon (MA) 6 18:12.8 112.9 36 37
38 Sam Hershman 10 Sharon (MA) 7 18:14.4 112.7 37 38
39 Thomas Cerier 12 Franklin (WA) 2 18:21.5 112.0 38 39
40 Evan Woodcock 12 Franklin (WA) 3 18:22.8 111.8 39 40
41 Jimmy Hoye 10 Taunton (MA) 4 18:26.1 111.5 40 41
42 Zac Bentley 11 Taunton (MA) 5 18:26.7 111.5 41 42
43 Colin Cochran 10 Stoughton (WI) 4 18:27.1 111.4 42 43
44 Jonathan Cicciu 12 Milford (DE) 1 18:27.3 111.4 43 44
45 Robert Moreau 11 Franklin (WA) 4 18:31.3 111.0 44 1
46 Jack Kalil 9 Milford (DE) 2 18:33.4 110.8 45 45
47 Brett Szlachciuk 10 Attleboro (MA) 3 18:34.8 110.7 46 46
48 Prateet Shah 11 North Attleborough (MA) 7 18:35.5 110.6 47 47
49 Tyler Kaufman 11 Sharon (MA) 8 18:35.9 110.5 48
50 Robert Anderson 11 King Philip Regional (MA) 2 18:37.5 110.4 48 49
51 Connor King 11 Taunton (MA) 6 18:39.8 110.2 49 50
52 Alex Cerce 12 Oliver Ames (MA) 7 18:39.8 110.2 50 51
53 Will Thayer 11 Taunton (MA) 7 18:40.8 110.1 51 52
54 Garrett Gillard 10 Attleboro (MA) 4 18:43.3 109.8 52 53
55 Drew Hoffman 12 North Attleborough (MA) 8 18:45.8 109.6 2
56 Matt Leppo 12 Oliver Ames (MA) 8 18:46.4 109.5 54
57 Kyle Nunes 11 Taunton (MA) 8 18:47.5 109.4 55
58 Kyle Nichols 12 Oliver Ames (MA) 9 18:49.7 109.2 56
59 Stephen Reilly 11 Sharon (MA) 9 18:49.9 109.2 57
60 James Kerester 11 Oliver Ames (MA) 10 18:51.9 109.0 3
61 Aidan Barry 12 Franklin (WA) 5 18:52.5 108.9 53 58
62 Zach Ferreira 10 Stoughton (WI) 5 18:53.7 108.8 54 59
63 Nate Pinkham 12 Franklin (WA) 6 18:55.0 108.7 55 60
64 Jeff Wu 11 Franklin (WA) 7 18:58.9 108.3 56 61
65 Matthew Thibeault 12 Oliver Ames (MA) 11 19:00.7 108.1 4
66 Charles Cropper 12 Franklin (WA) 8 19:01.2 108.1 62
67 Matthew Miller 11 Sharon (MA) 10 19:01.9 108.0 63
68 Tim O'Toole 12 Foxborough (MA) 2 19:03.6 107.9 57 64
69 Andrew Callahan 11 Taunton (MA) 9 19:07.3 107.5 65
70 John Barrett 10 Oliver Ames (MA) 12 19:08.6 107.4 5
71 Eric Ross 11 Sharon (MA) 11 19:10.2 107.2 6
72 Nicholas Gnaman 10 Franklin (WA) 9 19:10.3 107.2 66
73 Andrew Moy 12 Canton (MI) 1 19:10.8 107.2 58 67
74 Francis Olsson 12 Franklin (WA) 10 19:11.8 107.1 68
75 Nick Quattrucci 11 Stoughton (WI) 6 19:13.4 106.9 59 69
76 Cortland Priest 11 Canton (MI) 2 19:13.4 106.9 60 70
77 Jacob Pariseau 10 Attleboro (MA) 5 19:15.4 106.8 61 71
78 Brendan Haley 10 Mansfield (MA) 9 19:15.4 106.8 72
79 Danny Rounds 11 Foxborough (MA) 3 19:17.0 106.6 62 73
80 Thomas Dew 12 Oliver Ames (MA) 13 19:20.0 106.3 7
81 Mitch Prokopis 12 Milford (DE) 3 19:20.3 106.3 63 74
82 Dylan DeCosta 10 Oliver Ames (MA) 14 19:20.8 106.3 75
83 Dominic Giardini 11 Franklin (WA) 11 19:23.3 106.0 8
84 Charles Biedermann 10 Mansfield (MA) 10 19:24.4 105.9 9
85 Jake Romaine 10 Oliver Ames (MA) 15 19:25.0 105.9 10
86 Tyler Marchioni 10 Franklin (WA) 12 19:30.4 105.4 11
87 David O'Byrne 11 King Philip Regional (MA) 3 19:31.9 105.3 64 76
88 Jack Angelo 10 King Philip Regional (MA) 4 19:32.8 105.2 65 77
89 Domenic Roberto 12 Sharon (MA) 12 19:32.9 105.2 12
90 Christopher Danksewicz 11 Franklin (WA) 13 19:33.4 105.1 13
91 Mike Platt 11 Foxborough (MA) 4 19:34.8 105.0 66 78
92 John Berdos 12 King Philip Regional (MA) 5 19:36.5 104.8 67 79
93 Brendan Foley 10 Foxborough (MA) 5 19:38.4 104.7 68 80
94 Chris Meissner 10 Oliver Ames (MA) 16 19:38.7 104.7 14
95 Raj Patel 11 Stoughton (WI) 7 19:39.8 104.6 69 81
96 Garrett Ross 12 North Attleborough (MA) 9 19:40.9 104.5 82
97 Matt Kelly 10 Foxborough (MA) 6 19:41.5 104.4 70 83
98 Everett Henderson 10 Franklin (WA) 14 19:42.2 104.3 15
99 George Goldman 11 Sharon (MA) 13 19:43.6 104.2 16
100 Daniel Brooks 12 Canton (MI) 3 19:49.2 103.7 71 84
101 Mitchell Cupp 12 North Attleborough (MA) 10 19:50.2 103.6 17
102 Ben Sacco 12 Mansfield (MA) 11 19:50.7 103.6 18
103 Mike Lite 9 Oliver Ames (MA) 17 19:52.5 103.4 19
104 Liam Scollins 12 Foxborough (MA) 7 19:52.6 103.4 72 85
105 Ben Volk 11 Oliver Ames (MA) 18 19:53.3 103.4 20
106 Arjun Sonti 10 Mansfield (MA) 12 19:53.8 103.3 21
107 Nick Barber 11 Oliver Ames (MA) 19 19:54.5 103.3 22
108 Thomas Jacobson 11 Milford (DE) 4 19:56.3 103.1 73 86
109 Noah Treen 12 North Attleborough (MA) 11 19:56.8 103.1 23
110 Jack Steeves 11 Foxborough (MA) 8 19:57.2 103.0 24
111 Jake Bontempo 12 Franklin (WA) 15 19:58.5 102.9 25
112 Conor Bond 12 Franklin (WA) 16 19:59.4 102.8 87
113 Nicholas Carey 9 Milford (DE) 5 19:59.7 102.8 74 26
114 Matt Smith 12 Foxborough (MA) 9 20:05.0 102.4 88
115 Justin Victoria 11 Franklin (WA) 17 20:05.6 102.3 27
116 Garry Sampson 11 Milford (DE) 6 20:06.2 102.3 75 89
117 Alex Lupo 11 Mansfield (MA) 13 20:06.4 102.2 28
118 Riley Gibson 10 Oliver Ames (MA) 20 20:12.7 101.7 29
119 Richard Lucente 10 King Philip Regional (MA) 6 20:14.4 101.6 76 90
120 Alex McAuliffe 10 Oliver Ames (MA) 21 20:16.1 101.4 30
121 Lance Reynolds 12 Mansfield (MA) 14 20:16.2 101.4 31
122 Owen Scannell 10 Attleboro (MA) 6 20:18.7 101.2 77 32
123 Ethan Hicks 10 Foxborough (MA) 10 20:19.1 101.2 33
124 Christopher Almeida 10 Attleboro (MA) 7 20:23.3 100.8 78 91
125 Alec Hurd 10 Franklin (WA) 18 20:24.6 100.7 34
126 Mike Murley 11 Mansfield (MA) 15 20:26.5 100.6 35
127 Jason King 11 King Philip Regional (MA) 7 20:30.2 100.3 79 92
128 P.J. Plantamura 12 King Philip Regional (MA) 8 20:31.6 100.2 93
129 Devin Rafferty 11 King Philip Regional (MA) 9 20:33.3 100.0 36
130 Brian Rota 12 Canton (MI) 4 20:33.5 100.0 80 94
131 Matt LeBlanc 12 Milford (DE) 7 20:36.0 99.8 81 95
132 Artur Bergman 12 King Philip Regional (MA) 10 20:36.4 99.8 96
133 Billy Belizaire 11 Attleboro (MA) 8 20:36.5 99.8 37
134 Andrew Salvatori 9 Canton (MI) 5 20:36.5 99.8 82 97
135 Alexander Foote 9 Oliver Ames (MA) 22 20:37.1 99.7 38
136 Mike McGowan 11 Mansfield (MA) 16 20:37.7 99.7 39
137 Jake Swartz 12 Stoughton (WI) 8 20:37.8 99.7 40
138 Evan St. Germaine 11 Franklin (WA) 19 20:39.4 99.5 41
139 William Kerester 11 Oliver Ames (MA) 23 20:44.1 99.2 42
140 David Gilleran 12 Mansfield (MA) 17 20:44.7 99.1 43
141 Nathan Mcneilly 11 Attleboro (MA) 9 20:44.9 99.1 98
142 Zach Butcher 12 Milford (DE) 8 20:46.5 99.0 99
143 Matt Baez 11 Stoughton (WI) 9 20:49.6 98.7 100
144 Kyle Amerantes 10 Mansfield (MA) 18 20:54.2 98.3 44
145 Jacob Sylvestre 10 Foxborough (MA) 11 20:55.6 98.2 101
146 Robert Daly 12 Oliver Ames (MA) 24 20:56.3 98.2 45
147 Mike Salvatori 12 Canton (MI) 6 21:00.3 97.9 83 102
148 Robert Hoye 10 Franklin (WA) 20 21:01.7 97.8 46
149 Noah Healy 11 Canton (MI) 7 21:02.5 97.7 84 47
150 Joe Dean 10 Mansfield (MA) 19 21:04.2 97.6 48
151 Daniel Fiedorczyk 10 Oliver Ames (MA) 25 21:04.6 97.5 49
152 Samuel Barrett 10 Oliver Ames (MA) 26 21:04.6 97.5 50
153 Noah Richardson 11 Milford (DE) 9 21:05.1 97.5 103
154 Colin Herschlag 10 Oliver Ames (MA) 27 21:07.7 97.3 51
155 Matt Machado 10 Taunton (MA) 10 21:08.4 97.2 52
156 Andre Jaberi 10 Foxborough (MA) 12 21:08.8 97.2 53
157 Jared Luce 10 Milford (DE) 10 21:08.9 97.2 104
158 Brian Tucker 10 Stoughton (WI) 10 21:09.4 97.2 54
159 Punit Motiwala 11 Sharon (MA) 14 21:10.5 97.1 55
160 Connor LaBrosse 12 Oliver Ames (MA) 28 21:11.4 97.0 56
161 Nick Kidman 10 Milford (DE) 11 21:12.9 96.9 105
162 Mike Codega 12 North Attleborough (MA) 12 21:19.0 96.4 57
163 Jackson Peters 12 Mansfield (MA) 20 21:20.0 96.4 58
164 Connor Marland 11 King Philip Regional (MA) 11 21:20.3 96.3 59
165 Thomas Cahill 9 Canton (MI) 8 21:21.3 96.3 60
166 Ben Jennings 12 Oliver Ames (MA) 29 21:22.4 96.2 61
167 Justin Hutchinson 10 Stoughton (WI) 11 21:23.5 96.1 106
168 John DeWitt 10 King Philip Regional (MA) 12 21:24.5 96.0 62
169 Kevin Duduch 9 King Philip Regional (MA) 13 21:29.5 95.7 63
170 Jason Marshall 12 Stoughton (WI) 12 21:30.2 95.6 64
171 Paul Kroushl 10 Franklin (WA) 21 21:30.3 95.6 65
172 Owen Guerini 10 Canton (MI) 9 21:31.0 95.6 107
173 Stevens Bontemps 10 Stoughton (WI) 13 21:31.1 95.5 66
174 Luke Therieau 10 North Attleborough (MA) 13 21:38.5 95.0 67
175 Caleb Morrison 12 Canton (MI) 10 21:38.7 95.0 108
176 Kevin Saechew 10 Attleboro (MA) 10 21:42.3 94.7 68
177 Ryan Anderson 10 King Philip Regional (MA) 14 21:43.8 94.6 69
178 Edward Cropper 10 Franklin (WA) 22 21:48.3 94.3 70
179 Conrad Gajda 11 Attleboro (MA) 11 21:49.4 94.2 71
180 Matt Demoy 12 Canton (MI) 11 21:50.4 94.1 109
181 Andrew Morgan 10 Oliver Ames (MA) 30 21:50.9 94.1 72
182 Shea O'Conner 11 Oliver Ames (MA) 31 21:53.0 93.9 73
183 Jacob Lane 10 Oliver Ames (MA) 32 21:55.7 93.8 74
184 Dan Reed 11 Foxborough (MA) 13 21:56.1 93.7 75
185 Jack Long 11 Oliver Ames (MA) 33 21:58.9 93.5 76
186 Evan DiMartinis 9 Oliver Ames (MA) 34 21:59.0 93.5 77
187 Colin Messinger 9 Canton (MI) 12 21:59.1 93.5 78
188 Andrew Cavenaugh 11 King Philip Regional (MA) 15 22:01.0 93.4 79
189 Mark Cummings 10 Oliver Ames (MA) 35 22:01.2 93.4 80
190 Brian Sun 10 Franklin (WA) 23 22:10.6 92.7 81
191 RJ Shanteler 10 Mansfield (MA) 21 22:16.2 92.3 82
192 Eric Messier 10 Taunton (MA) 11 22:16.3 92.3 83
193 Timothy Noonan 12 Franklin (WA) 1 22:22.3 91.9 84
194 Tyler Donovan 10 Foxborough (MA) 14 22:23.7 91.8 85
195 Timothy Gong 10 Canton (MI) 13 22:24.2 91.8 86
196 Patrick Lam 11 Attleboro (MA) 12 22:25.1 91.7 87
197 Kyle Arena 10 Franklin (WA) 24 22:26.1 91.6 88
198 Jared Harney 10 Oliver Ames (MA) 36 22:26.5 91.6 89
199 Jake Elia 10 Milford (DE) 12 22:27.9 91.5 90
200 Kevin Hawley 12 Canton (MI) 14 22:33.5 91.1 91
201 Kyle Svenson 10 Mansfield (MA) 22 22:35.7 91.0 92
202 P.J. Keefe 10 Oliver Ames (MA) 37 22:36.0 91.0 93
203 Alex Shilcusky 10 Foxborough (MA) 15 22:36.2 90.9 94
204 Jitong Shen 10 Sharon (MA) 15 22:36.7 90.9 95
205 Charles Parker 10 Taunton (MA) 12 22:41.2 90.6 96
206 Dylan Chapman 10 Milford (DE) 13 22:44.4 90.4 97
207 Benjamin Skiba 11 Milford (DE) 14 22:47.3 90.2 98
208 Fred Cullen 11 Mansfield (MA) 23 22:48.2 90.2 99
209 Joe Valanzola 11 Milford (DE) 15 22:51.7 89.9 100
210 Cameron Mignon 11 Sharon (MA) 16 22:53.1 89.8 101
211 Ryan Hickey 9 Canton (MI) 15 22:59.8 89.4 102
212 Matt Abate 10 Attleboro (MA) 13 23:02.6 89.2 103
213 Saahil Shah 11 Sharon (MA) 17 23:17.0 88.3 104
214 Adam Duval 11 Franklin (WA) 25 23:20.2 88.1 105
215 John O'Brien 9 Canton (MI) 16 23:22.7 87.9 106
216 Jonathan Oliveira 12 Stoughton (WI) 14 23:24.0 87.9 107
217 Nick Harrington 11 Mansfield (MA) 24 23:26.8 87.7 108
218 Christopher Negus 12 Mansfield (MA) 25 23:30.5 87.4 109
219 Ryan Dolinsky 10 Stoughton (WI) 15 23:31.7 87.4 110
220 Cameron McManus 10 Canton (MI) 17 23:34.3 87.2 111
221 Anas Ahmed 10 Mansfield (MA) 26 23:37.2 87.0 112
222 Sean Ohlson 10 King Philip Regional (MA) 16 23:40.0 86.9 113
223 Rob Berube 10 North Attleborough (MA) 14 23:51.3 86.2 114
224 Ryan Bourque 12 King Philip Regional (MA) 17 23:51.6 86.2 115
225 Peilan Wang 10 Franklin (WA) 26 23:56.1 85.9 116
226 Alden Newman 10 Oliver Ames (MA) 38 23:59.5 85.7 117
227 Joseph Giancioppo 11 King Philip Regional (MA) 18 24:05.6 85.3 118
228 Taabish Syed 10 Milford (DE) 16 24:13.0 84.9 120
229 Jacob Fies 11 Oliver Ames (MA) 39 24:13.8 84.8 121
230 Ashby Hobart 10 Milford (DE) 17 24:14.0 84.8 122
231 Brandon Lentol 10 Canton (MI) 18 24:20.6 123
232 Jackson Lynch 11 Milford (DE) 18 24:23.3 84.3 124
233 James Manchuso 10 King Philip Regional (MA) 19 24:27.6 84.1 125
234 Andrew Caridi 11 Mansfield (MA) 27 24:30.2 83.9 126
235 Mike Clinch 10 King Philip Regional (MA) 20 24:36.0 83.6 127
236 Matt Iandoli 10 Mansfield (MA) 28 24:38.2 83.4 128
237 Cole O'Brien 10 Oliver Ames (MA) 40 24:39.2 83.4 129
238 Jack Marino 12 Foxborough (MA) 16 24:43.8 83.1 130
239 Kevin Clifford 9 King Philip Regional (MA) 21 24:46.6 83.0 131
240 Peter Bartlett 10 Canton (MI) 19 25:03.4 82.1 132
241 Nick Norberg 11 Attleboro (MA) 14 25:09.8 81.7 133
242 Matthew Petrillo 10 Oliver Ames (MA) 41 25:17.7 81.3 134
243 Dan Epstien 11 King Philip Regional (MA) 22 25:23.0 81.0 135
244 Aidan McIntosh 9 North Attleborough (MA) 15 25:47.0 136
245 Griffin Boulter 11 Mansfield (MA) 29 25:52.8 79.4 137
246 Danny Hanley 10 Oliver Ames (MA) 42 26:10.5 78.5 138
247 Adam Feeney 10 Canton (MI) 20 26:20.3 78.1 139
248 Nicholas Khuu 11 Stoughton (WI) 16 26:29.5 77.6 140
249 Nick Krysko 11 Mansfield (MA) 30 26:39.0 77.1 141
250 David Twerago 10 Stoughton (WI) 17 26:51.1 76.6 142
251 Robert Hepburn 12 King Philip Regional (MA) 23 27:50.6 73.8 143
252 Jing Huang 11 Sharon (MA) 18 27:51.3 73.8 144
253 John O'Neill 9 North Attleborough (MA) 16 27:53.3 73.7 145
254 Jeffrey Robarge 10 Oliver Ames (MA) 43 28:16.6 72.7 146
255 Ben Mendillo 10 Canton (MI) 21 29:33.0 69.6 147
256 Tom O'Brien 10 King Philip Regional (MA) 24 30:27.0 67.5 148
257 William Hagen 10 King Philip Regional (MA) 25 31:55.0 64.4 149